Almo, KY

7:38 AM CST on February 07, 2016 (GMT -0600)
Kyle-Oakley

Weather History for KCEY - August, 2014

Change the Weather History Date:

Tuesday, August 19, 2014

  Actual Average (KPAH) Record (KPAH)
Temperature  
Mean Temperature 80 °F 78 °F  
Max Temperature 89 °F 89 °F 98 °F (1962)
Min Temperature 71 °F 66 °F 57 °F (1982)
Degree Days  
Heating Degree Days 0 0  
Month to date heating degree days 0  
Since 1 June heating degree days 4  
Since 1 July heating degree days 0  
Cooling Degree Days 15 13  
Month to date cooling degree days 248  
Year to date cooling degree days 1171  
Since 1 June cooling degree days 999  
Growing Degree Days 30 (Base 50)    
Moisture  
Dew Point 73 °F    
Average Humidity 84    
Maximum Humidity 100    
Minimum Humidity 58    
Precipitation  
Precipitation 0.00 in 0.08 in 1.71 in (1954)
Month to date precipitation 1.75  
Year to date precipitation 31.47  
Snow  
Snow 0.00 in 0.00 in 0.00 in (2002)
Month to date snowfall 0.0  
Since 1 June snowfall 0.0  
Since 1 July snowfall 0.0  
Snow Depth -    
Sea Level Pressure  
Sea Level Pressure 29.87 in    
Wind  
Wind Speed 6 mph (SW)    
Max Wind Speed 13 mph    
Max Gust Speed 18 mph    
Visibility 7 miles    
Events      
T = Trace of Precipitation, MM = Missing Value Source: NWS Daily Summary

Daily Weather History Graph

Daily Weather History Graph

Search for Another Location

Airport or City:

Trip Planner

Search our weather history database for the weather conditions in past years. The results will help you decide how hot, cold, wet, or windy it might be!

Date:

Astronomy

Aug. 19, 2014 Rise Set
Actual Time 6:14 AM CDT 7:39 PM CDT
Civil Twilight 5:46 AM CDT 8:06 PM CDT
Nautical Twilight 5:14 AM CDT 8:39 PM CDT
Astronomical Twilight 4:40 AM CDT 9:13 PM CDT
Moon 1:08 AM CDT (8/19) 3:32 PM CDT (8/19)
Length of Visible Light 14h 19m
Length of Day
13h 25m
Waning Crescent, 29% of the Moon is Illuminated
Aug 19
Waning Crescent
Aug 25
New
Sep 2
First Quarter
Sep 8
Full
Sep 15
Last Quarter

Hourly Weather History & Observations

Time (CDT) Temp. Heat Index Dew Point Humidity Pressure Visibility Wind Dir Wind Speed Gust Speed Precip Events Conditions
12:15 AM 71.6 °F - 71.6 °F 100% 29.87 in 10.0 mi SW 6.9 mph - N/A   Scattered Clouds
12:35 AM 73.4 °F - 73.4 °F 100% 29.86 in 3.0 mi SW 6.9 mph - N/A   Overcast
12:55 AM 73.4 °F - 73.4 °F 100% 29.86 in 0.5 mi SW 5.8 mph - N/A   Overcast
1:15 AM 71.6 °F - 71.6 °F 100% 29.85 in 1.5 mi SW 5.8 mph - N/A   Overcast
1:35 AM 73.4 °F - 73.4 °F 100% 29.85 in 3.0 mi SW 4.6 mph - N/A   Overcast
1:55 AM 73.4 °F - 73.4 °F 100% 29.85 in 3.0 mi SW 4.6 mph - N/A   Overcast
2:15 AM 73.4 °F - 73.4 °F 100% 29.84 in 0.8 mi WSW 6.9 mph - N/A   Overcast
2:35 AM 73.4 °F - 73.4 °F 100% 29.84 in 0.8 mi West 5.8 mph - N/A   Overcast
2:55 AM 71.6 °F - 71.6 °F 100% 29.85 in 0.8 mi SW 5.8 mph - N/A   Overcast
3:15 AM 71.6 °F - 71.6 °F 100% 29.85 in 2.5 mi SW 5.8 mph - N/A   Overcast
3:35 AM 71.6 °F - 71.6 °F 100% 29.85 in 2.0 mi WSW 5.8 mph - N/A   Overcast
3:55 AM 71.6 °F - 71.6 °F 100% 29.85 in 3.0 mi WSW 5.8 mph - N/A   Overcast
4:15 AM 71.6 °F - 71.6 °F 100% 29.85 in 4.0 mi WSW 4.6 mph - N/A   Overcast
4:35 AM 71.6 °F - 71.6 °F 100% 29.86 in 3.0 mi WSW 4.6 mph - N/A   Overcast
4:55 AM 71.6 °F - 71.6 °F 100% 29.86 in 1.8 mi WSW 3.5 mph - N/A   Overcast
5:15 AM 71.6 °F - 71.6 °F 100% 29.87 in 1.0 mi WSW 5.8 mph - N/A   Overcast
5:35 AM 71.6 °F - 71.6 °F 100% 29.88 in 0.8 mi WSW 3.5 mph - N/A   Overcast
5:55 AM 71.6 °F - 71.6 °F 100% 29.88 in 1.2 mi SW 5.8 mph - N/A   Overcast
6:15 AM 71.6 °F - 71.6 °F 100% 29.88 in 1.2 mi SW 5.8 mph - N/A   Overcast
6:35 AM 71.6 °F - 71.6 °F 100% 29.88 in 0.2 mi SSW 4.6 mph - N/A   Overcast
6:55 AM 71.6 °F - 71.6 °F 100% 29.88 in 0.2 mi SSW 3.5 mph - N/A   Overcast
7:15 AM 71.6 °F - 71.6 °F 100% 29.89 in 0.2 mi Calm Calm - N/A   Overcast
7:35 AM 71.6 °F - 71.6 °F 100% 29.88 in 0.2 mi Calm Calm - N/A   Overcast
7:55 AM 73.4 °F - 71.6 °F 94% 29.89 in 0.2 mi South 5.8 mph - N/A   Overcast
8:15 AM 73.4 °F - 73.4 °F 100% 29.89 in 0.2 mi South 3.5 mph - N/A   Overcast
8:35 AM 73.4 °F - 73.4 °F 100% 29.89 in 0.5 mi South 3.5 mph - N/A   Overcast
8:55 AM 73.4 °F - 73.4 °F 100% 29.89 in 1.5 mi South 5.8 mph - N/A   Overcast
9:15 AM 75.2 °F - 75.2 °F 100% 29.90 in 6.0 mi SSW 4.6 mph - N/A   Overcast
9:35 AM 75.2 °F - 75.2 °F 100% 29.90 in 7.0 mi SSW 5.8 mph - N/A   Overcast
9:55 AM 77.0 °F - 77.0 °F 100% 29.90 in 7.0 mi South 5.8 mph - N/A   Mostly Cloudy
10:15 AM 80.6 °F 86.2 °F 75.2 °F 84% 29.90 in 10.0 mi SW 4.6 mph - N/A   Mostly Cloudy
10:35 AM 80.6 °F 86.2 °F 75.2 °F 84% 29.90 in 10.0 mi SSW 8.1 mph - N/A   Mostly Cloudy
10:55 AM 80.6 °F 86.2 °F 75.2 °F 84% 29.90 in 10.0 mi South 8.1 mph - N/A   Scattered Clouds
11:15 AM 80.6 °F 86.2 °F 75.2 °F 84% 29.90 in 10.0 mi SSW 8.1 mph - N/A   Scattered Clouds
11:35 AM 82.4 °F 88.2 °F 73.4 °F 74% 29.89 in 10.0 mi South 9.2 mph - N/A   Partly Cloudy
11:55 AM 82.4 °F 88.2 °F 73.4 °F 74% 29.90 in 10.0 mi South 10.4 mph 16.1 mph N/A   Partly Cloudy
12:15 PM 84.2 °F 90.9 °F 73.4 °F 70% 29.89 in 10.0 mi SSW 6.9 mph - N/A   Clear
12:35 PM 86.0 °F 93.4 °F 73.4 °F 66% 29.89 in 10.0 mi South 10.4 mph 16.1 mph N/A   Clear
12:55 PM 86.0 °F 93.4 °F 73.4 °F 66% 29.89 in 10.0 mi SSW 9.2 mph - N/A   Partly Cloudy
1:15 PM 87.8 °F 95.6 °F 73.4 °F 62% 29.88 in 10.0 mi SSW 8.1 mph - N/A   Partly Cloudy
1:35 PM 87.8 °F 95.6 °F 73.4 °F 62% 29.88 in 10.0 mi WSW 8.1 mph 17.3 mph N/A   Mostly Cloudy
1:55 PM 89.6 °F 98.2 °F 73.4 °F 59% 29.87 in 10.0 mi WSW 10.4 mph - N/A   Mostly Cloudy
2:15 PM 87.8 °F 95.6 °F 73.4 °F 62% 29.86 in 10.0 mi SSW 10.4 mph - N/A   Mostly Cloudy
2:35 PM 89.6 °F 98.2 °F 73.4 °F 59% 29.87 in 10.0 mi West 8.1 mph - N/A   Overcast
2:55 PM 89.6 °F 98.2 °F 73.4 °F 59% 29.85 in 10.0 mi WSW 12.7 mph 18.4 mph N/A   Scattered Clouds
3:15 PM 89.6 °F 98.2 °F 73.4 °F 59% 29.84 in 10.0 mi SSW 9.2 mph - N/A   Scattered Clouds
3:35 PM 89.6 °F 98.2 °F 73.4 °F 59% 29.83 in 10.0 mi SW 9.2 mph - N/A   Mostly Cloudy
4:15 PM 89.6 °F 98.2 °F 73.4 °F 59% 29.83 in 10.0 mi SW 10.4 mph 16.1 mph N/A   Mostly Cloudy
4:35 PM 87.8 °F 95.6 °F 73.4 °F 62% 29.83 in 10.0 mi SW 9.2 mph - N/A   Scattered Clouds
4:55 PM 89.6 °F 98.2 °F 73.4 °F 59% 29.84 in 10.0 mi WSW 11.5 mph 16.1 mph N/A   Mostly Cloudy
5:15 PM 87.8 °F 95.6 °F 73.4 °F 62% 29.84 in 10.0 mi SW 8.1 mph - N/A   Mostly Cloudy
5:35 PM 86.0 °F 91.8 °F 71.6 °F 62% 29.85 in 10.0 mi West 10.4 mph - N/A   Scattered Clouds
5:55 PM 86.0 °F 93.4 °F 73.4 °F 66% 29.84 in 10.0 mi West 6.9 mph - N/A   Mostly Cloudy
6:15 PM 84.2 °F 87.3 °F 68.0 °F 58% 29.82 in 10.0 mi SE 5.8 mph - N/A   Clear
6:35 PM 84.2 °F 89.6 °F 71.6 °F 66% 29.84 in 10.0 mi SSW 8.1 mph - N/A   Clear
6:55 PM 82.4 °F 87.2 °F 71.6 °F 70% 29.85 in 10.0 mi SW 6.9 mph - N/A   Clear
7:15 PM 82.4 °F 87.2 °F 71.6 °F 70% 29.84 in 10.0 mi SW 6.9 mph - N/A   Clear
7:35 PM 82.4 °F 88.2 °F 73.4 °F 74% 29.85 in 10.0 mi SSW 5.8 mph - N/A   Clear
7:55 PM 80.6 °F 85.4 °F 73.4 °F 79% 29.85 in 10.0 mi SW 4.6 mph - N/A   Clear
8:15 PM 80.6 °F 85.4 °F 73.4 °F 79% 29.84 in 10.0 mi SW 6.9 mph - N/A   Clear
8:35 PM 80.6 °F 84.6 °F 71.6 °F 74% 29.85 in 10.0 mi SW 5.8 mph - N/A   Clear
8:55 PM 78.8 °F - 71.6 °F 78% 29.86 in 10.0 mi SW 5.8 mph - N/A   Clear
9:15 PM 77.0 °F - 71.6 °F 83% 29.87 in 10.0 mi SW 6.9 mph - N/A   Clear
9:35 PM 77.0 °F - 71.6 °F 83% 29.87 in 10.0 mi SW 6.9 mph - N/A   Clear
9:55 PM 77.0 °F - 71.6 °F 83% 29.88 in 10.0 mi SW 8.1 mph - N/A   Clear
10:15 PM 77.0 °F - 71.6 °F 83% 29.88 in 10.0 mi SW 8.1 mph - N/A   Clear
10:35 PM 77.0 °F - 73.4 °F 89% 29.88 in 10.0 mi SW 5.8 mph - N/A   Clear
10:55 PM 77.0 °F - 73.4 °F 89% 29.87 in 10.0 mi SSW 6.9 mph - N/A   Clear
11:15 PM 77.0 °F - 73.4 °F 89% 29.87 in 10.0 mi SSW 6.9 mph - N/A   Clear
11:35 PM 77.0 °F - 73.4 °F 89% 29.87 in 10.0 mi SSW 6.9 mph - N/A   Clear
11:55 PM 77.0 °F - 73.4 °F 89% 29.87 in 10.0 mi SSW 5.8 mph - N/A   Clear